Dewpoint
28 24 22 23 25 23 24 23 21 25 29 31 29 28 26 31 33 35 35 36 37 37 37 37 37 37 36 36 34 32 34 35 31 27 26 26 25 24 24 23 29 30 31 32
24 23 19 20 25 26 22 21 21 27 28 30 27 26 27 29 32 34 35 36 37 37 36 37 37 37 38 36 34 33 32 33 30 26 26 26 25 23 22 22 26 28 31 31
22 19 21 24 26 25 24 23 22 24 27 28 27 25 24 24 30 32 34 36 36 37 37 37 37 38 38 36 34 32 32 31 31 30 25 25 24 22 20 22 22 27 29 30
19 21 23 23 24 24 22 23 23 24 25 19 27 18 17 20 26 30 32 34 36 37 38 37 37 38 37 36 34 33 32 30 28 31 27 27 22 19 21 22 24 26 28 29
19 22 24 24 23 24 24 26 25 23 23 24 22 20 16 20 16 26 30 33 35 37 38 37 37 37 35 35 35 34 32 28 29 29 29 25 26 23 23 24 27 27 27 28
18 20 20 23 23 26 26 25 24 24 22 19 19 17 12 16 18 23 26 30 33 35 38 38 37 37 33 33 34 34 30 29 30 29 28 28 27 27 25 25 24 24 25 26
18 18 17 18 19 21 23 22 19 18 16 15 12 9 11 22 23 24 26 29 33 36 38 37 36 34 33 34 34 31 29 28 29 28 27 26 26 26 24 24 24 25 24 25
14 18 18 18 20 19 20 20 19 16 13 13 13 10 15 25 26 27 28 31 34 37 38 37 36 35 33 34 33 30 27 26 26 27 26 25 25 22 22 24 24 23 24 26
14 13 17 16 17 18 20 18 20 21 22 19 14 13 22 22 25 28 29 32 35 37 38 37 36 36 34 33 33 30 26 26 26 26 25 24 24 25 24 26 26 24 27 25
19 19 18 15 15 16 19 19 19 18 17 15 11 11 9 21 24 27 30 33 36 37 37 36 35 36 34 33 31 31 27 25 26 26 24 22 24 23 23 23 24 25 26 25
19 20 18 16 17 15 15 17 20 18 18 16 14 13 22 22 23 27 31 34 36 37 37 36 36 35 33 32 29 29 26 26 28 25 24 24 24 21 20 20 21 22 24 23
22 24 21 17 16 15 16 18 19 19 19 20 20 20 22 27 27 28 31 34 36 37 36 36 35 34 33 29 27 27 28 28 27 22 23 23 22 19 19 19 20 22 22 23
30 22 18 17 19 19 17 16 16 19 22 21 22 19 25 27 26 27 32 34 36 37 36 35 33 32 32 28 27 26 27 28 24 18 19 22 21 19 18 19 19 20 20 21
35 26 23 19 18 18 20 16 14 16 18 19 17 18 23 25 24 29 32 34 35 36 35 34 33 33 30 28 27 26 27 27 19 17 18 21 20 18 18 19 19 19 20 20
30 26 24 21 20 20 17 14 12 12 14 16 16 13 17 24 24 31 34 34 34 34 34 33 33 31 28 28 27 26 26 22 17 17 18 20 19 18 19 19 18 19 20 20
31 27 25 24 19 19 18 17 15 14 13 13 13 13 22 28 29 31 33 33 33 33 33 32 32 30 27 26 26 25 24 16 17 18 16 17 17 16 19 18 18 18 19 19
31 31 29 24 21 23 22 21 20 19 18 15 16 22 27 27 28 31 32 32 32 33 32 32 31 29 27 26 26 25 19 15 16 17 15 15 16 16 18 17 17 16 17 19
28 29 31 30 26 33 23 24 22 22 21 19 18 23 24 28 30 31 32 32 32 32 32 32 30 29 28 27 26 22 13 15 16 16 14 15 16 16 17 17 17 16 17 18
31 29 32 36 30 26 23 22 23 23 23 22 21 26 28 29 32 31 32 33 33 33 33 32 30 29 27 26 24 15 14 15 15 16 15 15 16 15 17 17 16 16 16 18
29 31 30 40 34 22 27 21 20 23 22 24 27 28 29 29 28 32 33 34 33 34 32 29 29 27 27 25 19 15 15 15 16 17 17 14 15 15 17 17 16 17 18 18
28 29 30 30 33 29 26 20 22 24 30 28 28 30 31 33 34 34 34 33 33 31 30 29 28 26 26 22 17 17 17 17 17 17 16 16 16 13 15 16 17 19 19 20
28 31 35 33 31 31 34 22 28 34 33 32 34 38 37 35 33 33 32 31 29 29 28 28 26 25 23 17 16 16 18 19 17 18 18 17 17 12 11 16 18 18 19 19
32 35 36 33 32 38 38 33 34 36 35 35 37 36 34 33 32 31 31 30 29 28 27 26 24 23 17 14 15 19 18 17 19 19 24 17 14 11 14 16 17 16 16 15
34 38 38 38 37 42 42 42 41 37 36 37 38 34 33 32 31 30 30 30 28 28 26 25 24 19 16 16 20 25 27 29 30 29 19 13 11 12 15 17 17 15 14 15
34 38 35 38 39 40 40 44 46 35 36 33 34 33 33 32 31 31 30 29 28 26 26 25 22 21 23 24 24 22 21 19 14 11 10 11 12 11 14 18 15 15 16 16
35 36 39 38 40 41 40 38 36 35 33 33 33 33 33 32 31 31 30 29 27 26 25 23 25 27 29 27 27 22 18 11 10 10 10 12 11 11 12 15 21 19 18 15
Lifted_Index
4 4 3 3 3 3 3 3 3 3 4 4 4 4 4 5 6 6 6 7 8 9 11 13 14 14 14 14 15 16 17 18 18 18 19 19 19 19 19 19 19 19 19 19
4 4 3 3 3 3 3 3 3 3 4 4 4 4 4 5 5 6 6 6 7 9 10 12 13 14 14 14 15 16 17 18 18 19 19 19 19 19 19 19 19 19 19 19
4 3 3 4 4 4 3 3 3 3 4 4 4 4 4 4 5 5 6 6 7 8 9 11 12 13 14 14 15 16 17 18 18 19 19 19 19 19 19 19 19 18 18 18
4 4 4 4 4 3 3 3 3 3 3 3 3 3 3 3 4 5 5 6 6 7 8 10 11 12 13 14 15 16 17 18 19 19 19 19 19 19 19 19 18 18 18 17
4 4 4 4 4 4 3 4 4 4 3 3 3 3 2 3 4 5 5 6 6 7 8 9 11 12 14 15 16 16 17 18 19 19 19 19 19 19 19 18 18 17 17 16
4 5 5 4 4 4 4 4 3 3 3 2 3 3 2 3 4 5 5 6 6 7 8 9 11 12 14 15 16 17 17 18 18 19 19 20 19 19 19 18 18 17 16 15
3 4 5 5 4 4 4 4 3 2 1 1 2 2 2 3 4 5 6 6 6 7 8 9 11 12 14 15 15 16 17 17 18 19 19 20 19 19 19 18 18 17 15 14
1 2 4 5 5 4 4 4 3 1 1 1 2 2 2 3 5 5 6 6 6 7 8 9 11 12 13 14 15 16 17 17 18 19 19 19 19 19 19 18 17 16 15 14
1 2 3 5 5 4 4 3 3 2 1 1 1 1 1 2 4 5 6 6 6 7 8 9 11 12 13 14 15 16 17 17 18 19 19 19 19 19 19 18 17 16 15 14
3 3 4 5 5 4 4 3 3 2 1 1 1 0 1 2 3 4 5 6 6 7 8 9 11 12 13 14 15 16 16 17 18 19 19 19 20 19 19 18 17 16 15 15
4 4 4 4 5 4 4 3 3 2 1 1 1 1 1 2 3 4 5 5 6 7 8 9 11 12 13 14 15 15 16 17 18 19 19 20 20 19 19 18 17 16 16 15
4 4 4 4 4 4 4 3 3 3 2 2 2 2 2 3 4 4 5 5 6 7 8 9 11 12 13 14 15 15 16 17 18 19 20 20 20 19 18 17 17 16 16 15
4 4 3 3 3 3 3 4 3 3 2 2 2 2 2 3 4 4 5 5 6 7 8 9 11 12 12 13 14 15 16 17 19 20 20 20 19 19 18 17 17 16 15 15
5 4 3 3 2 2 3 3 3 3 3 2 2 1 2 3 4 4 5 6 6 7 8 9 10 11 12 13 14 15 16 18 19 20 20 20 19 18 18 17 16 15 15 14
5 4 3 3 3 3 3 3 3 3 3 2 2 2 2 3 4 4 5 6 7 7 7 8 9 10 11 13 14 15 17 18 20 20 20 19 19 18 17 16 15 15 14 14
4 4 3 3 3 3 3 3 2 2 2 2 2 2 3 3 4 5 6 6 7 7 7 8 9 10 12 13 14 16 17 19 20 20 20 19 18 17 17 16 15 14 14 13
3 3 2 2 2 2 2 2 2 2 2 2 2 2 3 4 4 5 6 7 7 7 7 8 10 11 12 13 15 16 18 19 20 20 19 19 18 17 16 15 14 14 14 13
3 3 2 1 1 1 1 1 1 1 1 2 3 3 3 3 4 5 6 7 7 7 8 10 11 12 13 14 15 17 19 20 20 19 19 18 18 17 16 15 14 14 13 13
3 2 1 1 1 0 0 0 1 1 1 2 3 4 4 4 4 5 6 7 7 8 9 11 12 12 13 15 16 18 19 20 20 19 19 18 17 16 16 15 14 14 13 12
3 2 1 0 0 0 0 1 1 1 1 2 3 4 4 4 4 5 6 7 8 9 10 11 12 13 14 15 17 18 19 19 20 19 18 18 17 16 16 15 14 13 12 12
3 2 1 0 -0 -0 0 1 1 1 2 3 4 4 4 4 4 5 6 7 8 9 10 11 12 13 14 16 17 18 19 20 20 19 18 18 17 16 16 15 14 13 12 12
2 1 1 -0 -0 -0 0 1 2 2 2 3 3 3 3 4 5 6 7 7 8 9 10 11 12 13 15 17 18 19 19 20 19 19 18 18 17 17 16 15 15 14 13 13
2 1 0 -0 -1 -1 -0 1 2 2 3 3 3 3 4 4 5 6 7 7 8 9 10 11 12 13 15 17 19 20 20 20 19 19 18 17 17 17 16 16 15 14 14 13
1 1 -0 -1 -1 -1 -0 1 2 2 2 3 4 4 5 5 5 6 7 7 8 9 10 11 13 14 15 17 19 20 20 20 20 19 18 17 17 17 17 16 16 15 14 14
1 1 0 -0 -1 -1 0 1 2 2 3 4 5 5 5 6 5 6 7 8 9 10 11 12 13 14 15 17 19 20 20 20 19 18 17 17 17 17 17 16 16 16 15 15
1 1 0 -0 -0 0 1 2 2 2 3 5 6 6 6 6 5 6 7 8 9 10 11 12 13 14 16 18 20 20 20 20 19 18 17 17 17 17 17 16 16 16 16 16